Flag for Germany Weather past 2 weeks in Lippstadt, North Rhine-Westphalia, Germany

Now
55 °F

Scattered clouds.


Feels Like: 55 °F
Forecast: 52 / 77 °F
Wind: 3 mph from West

Location: Paderborn / Lippstadt

Current Time: Aug 28, 2015 at 9:58:30 AM

Latest Report: Aug 28, 2015 at 9:20 AM


Visibility: N/A

Pressure: 30.04 "Hg

Humidity: 88%

Dew point: 52 °F

Location of LippstadtLocation

Historic Weather in Lippstadt — Graph

°F

Lippstadt temperature yesterday

Maximum temperature yesterday: 73 °F (at 2:50 AM)
Minimum temperature yesterday: 54 °F (at 9:50 PM)
Average temperature yesterday: 63 °F

Past Weeks' High & Low Weather Summary

 TemperatureHumidityPressure
High84 °F (Aug 13, 4:50 PM)100% (Aug 16, 11:50 AM)30.27 "Hg (Aug 16, 11:50 AM)
Low50 °F (Aug 19, 6:50 AM)31% (Aug 22, 3:20 PM)29.59 "Hg (Aug 24, 4:20 PM)
Average64 °F70%29.95 "Hg
* Reported Aug 13 8:20 AM — Aug 28 8:50 AM, Lippstadt, Weather by CustomWeather, © 2015

Note: Actual official high and low records may vary slightly from our data, if they occured in-between our weather recording intervals... More about our weather records

Advertising

Lippstadt weather history for previous 24 hours

 ConditionsComfort  
Time TempWeatherWind HumidityBarometerVisibility
8:50 AM
Fri, Aug 28
55 °FScattered clouds.5 mph88%30.01 "HgN/A
8:20 AM54 °FScattered clouds.5 mph94%30.01 "HgN/A
7:50 AM54 °FScattered clouds.5 mph94%30.01 "HgN/A
7:20 AM52 °FPassing clouds.3 mph94%29.98 "HgN/A
6:50 AM50 °FPassing clouds.3 mph100%29.98 "HgN/A
6:20 AM52 °FPassing clouds.3 mph94%29.98 "HgN/A
5:50 AM52 °FPassing clouds.5 mph94%29.98 "HgN/A
5:20 AM54 °FPartly cloudy.5 mph94%29.95 "HgN/A
4:50 AM54 °FPassing clouds.2 mph94%29.95 "HgN/A
4:20 AM54 °FPassing clouds.5 mph94%29.95 "HgN/A
3:50 AM54 °FPartly cloudy.5 mph94%29.95 "HgN/A
3:20 AM54 °FPartly cloudy.5 mph94%29.95 "HgN/A
2:50 AM54 °FPassing clouds.5 mph94%29.92 "Hg5 mi
2:20 AM52 °FLight rain. Mostly cloudy.3 mph100%29.92 "Hg3 mi
1:50 AM52 °FLight rain. Low clouds.5 mph100%29.92 "Hg5 mi
1:20 AM54 °FRain. Low clouds.5 mph94%29.92 "Hg3 mi
12:50 AM54 °FRain. Low clouds.5 mph94%29.92 "Hg2 mi
12:20 AM54 °FRain. Low clouds.7 mph94%29.92 "Hg3 mi
11:50 PM
Thu, Aug 27
54 °FRain. Low clouds.5 mph100%29.89 "Hg3 mi
11:20 PM54 °FRain. Low clouds.7 mph100%29.89 "Hg3 mi
10:50 PM54 °FRain. Low clouds.6 mph100%29.89 "Hg3 mi
10:20 PM55 °FRain. Passing clouds.5 mph94%29.89 "Hg3 mi
9:50 PM54 °FRain. Passing clouds.5 mph100%29.86 "Hg3 mi
9:20 PM55 °FRain. Fog.3 mph100%29.89 "Hg1 mi
8:50 PM55 °FRain. Fog.2 mph100%29.89 "Hg1 mi
8:20 PM55 °FRain. Fog.5 mph100%29.86 "Hg1 mi
7:50 PM55 °FRain. Fog.6 mph100%29.86 "Hg1 mi
7:20 PM57 °FRain. Fog.6 mph94%29.86 "Hg1 mi
6:50 PM57 °FRain. Partly sunny.3 mph94%29.86 "Hg2 mi
6:20 PM57 °FRain. Partly sunny.5 mph94%29.86 "Hg2 mi
5:50 PM57 °FRain. Partly sunny.5 mph94%29.86 "Hg2 mi
5:20 PM57 °FRain. Broken clouds.5 mph94%29.86 "Hg2 mi
4:50 PM57 °FRain. Partly sunny.6 mph94%29.86 "Hg2 mi
4:20 PM59 °FRain. Partly sunny.5 mph88%29.86 "Hg5 mi
3:50 PM61 °FRain. Partly sunny.5 mph88%29.86 "Hg5 mi
3:20 PM63 °FLight rain. Scattered clouds.8 mph77%29.86 "HgN/A
2:50 PM63 °FLight rain. Passing clouds.8 mph77%29.86 "HgN/A
2:20 PM63 °FSunny.8 mph73%29.86 "Hg10 mi
1:50 PM64 °FPassing clouds.9 mph68%29.86 "HgN/A
1:20 PM64 °FSunny.6 mph64%29.86 "Hg10 mi
12:50 PM64 °FSunny.10 mph64%29.89 "Hg10 mi
12:20 PM64 °FScattered clouds.12 mph64%29.89 "HgN/A
11:50 AM66 °FScattered clouds.9 mph64%29.89 "HgN/A
11:20 AM64 °FScattered clouds.8 mph73%29.89 "HgN/A
10:50 AM66 °FScattered clouds.6 mph60%29.86 "HgN/A
10:20 AM66 °FPassing clouds.12 mph56%29.86 "HgN/A
9:50 AM68 °FScattered showers. Passing clouds.14 mph53%29.86 "HgN/A
9:20 AM68 °FSunny.13 mph60%29.86 "Hg10 mi
Weather by CustomWeather, © 2015

See weather overviewHow to use our weather pages